Language: 


Des rapports , des résumés tant et plus, au choix de chacun....


Données Historiques de Météogheer
Journalier Rapport pour Mars 3, 2018 Unitée:  Impériale    Métrique   Les deux
Suivant Jour »
Journalier Hebdomadaire Mensuel Annuel Sur mesure
  Max: Min: Moyenne:
Température: 49.1 °F 24.8 °F 35.8 °F
Point de rosée: 37.4 °F 23 °F 31.1 °F
Humidité: 98% 0% 84%
Vent: 8.7mph 0mph 2.7mph
Rafales: 8.7mph - -
Vent- - East
Pression: 29.4 in 0 in -
Pluie: 0 in    
Historical Graphs
 
 
Données tabulaires pour Mars 3, 2018
Heure Température Point de rosée Pression Vent Vent Rafales Humidité Pluie Taux (Horaire) Conditions
00:04 31.3 °F 28.4 °F 29.3 in Calm     91% 0 in
00:09 31.3 °F 28.4 °F 29.3 in Calm     91% 0 in
00:14 31.3 °F 28.4 °F 29.3 in Calm     91% 0 in
00:19 31.1 °F 26.6 °F 29.3 in ENE 3.1 mph 3.4 mph 91% 0 in
00:24 31.1 °F 26.6 °F 29.3 in Calm   3.6 mph 91% 0 in
00:29 30.9 °F 26.6 °F 29.3 in Calm   3.6 mph 91% 0 in
00:35 30.9 °F 26.6 °F 29.3 in Calm   1.1 mph 91% 0 in
00:40 30.9 °F 26.6 °F 29.3 in Calm   3.8 mph 91% 0 in
00:45 30.9 °F 26.6 °F 29.3 in Calm   3.8 mph 91% 0 in
00:50 30.9 °F 26.6 °F 29.3 in Calm   2.9 mph 91% 0 in
00:55 30.9 °F 26.6 °F 29.3 in Calm   2 mph 92% 0 in
01:00 30.9 °F 26.6 °F 29.3 in NE 3.4 mph 3.6 mph 92% 0 in
01:05 30.9 °F 26.6 °F 29.3 in NE 3.6 mph 4.3 mph 92% 0 in
01:10 30.9 °F 26.6 °F 29.3 in NE 4 mph 4.3 mph 92% 0 in
01:15 30.9 °F 28.4 °F 29.3 in Calm   5.8 mph 93% 0 in
01:20 30.9 °F 28.4 °F 29.3 in Calm   5.8 mph 93% 0 in
01:25 30.9 °F 28.4 °F 29.3 in Calm   3.8 mph 93% 0 in
01:30 31.1 °F 28.4 °F 29.3 in Calm   4.3 mph 93% 0 in
01:35 31.1 °F 28.4 °F 29.3 in ENE 2.9 mph 4.3 mph 94% 0 in
01:40 31.1 °F 28.4 °F 29.3 in Calm   3.1 mph 94% 0 in
01:45 31.1 °F 28.4 °F 29.3 in Calm   4 mph 94% 0 in
01:50 31.1 °F 28.4 °F 29.3 in Calm   4 mph 94% 0 in
01:55 31.1 °F 28.4 °F 29.3 in Calm   3.6 mph 94% 0 in
02:01 31.1 °F 28.4 °F 29.3 in Calm   3.8 mph 94% 0 in
02:06 30.9 °F 28.4 °F 29.3 in Calm   3.8 mph 94% 0 in
02:11 30.9 °F 28.4 °F 29.3 in Calm   2.7 mph 94% 0 in
02:16 30.7 °F 28.4 °F 29.3 in Calm   2.9 mph 94% 0 in
02:21 30.7 °F 28.4 °F 29.3 in NE 4 mph 4 mph 94% 0 in
02:26 30.6 °F 26.6 °F 29.3 in Calm   4 mph 94% 0 in
02:31 30.4 °F 26.6 °F 29.3 in Calm   4 mph 94% 0 in
02:36 30.2 °F 26.6 °F 29.3 in NE 4 mph 4 mph 94% 0 in
02:41 30 °F 26.6 °F 29.3 in NE 3.8 mph 4 mph 94% 0 in
02:46 30 °F 26.6 °F 29.3 in Calm   4 mph 94% 0 in
02:51 29.7 °F 26.6 °F 29.3 in NE 4 mph 4 mph 94% 0 in
02:56 29.5 °F 26.6 °F 29.3 in Calm   4.9 mph 94% 0 in
03:01 29.5 °F 26.6 °F 29.3 in Calm   4.9 mph 94% 0 in
03:06 29.3 °F 26.6 °F 29.3 in Calm   2 mph 94% 0 in
03:11 29.3 °F 26.6 °F 29.3 in Calm   3.1 mph 94% 0 in
03:16 29.3 °F 26.6 °F 29.3 in Calm   3.1 mph 94% 0 in
03:21 29.3 °F 26.6 °F 29.3 in Calm   1.6 mph 94% 0 in
03:26 29.3 °F 26.6 °F 29.3 in NE 3.8 mph 4.3 mph 94% 0 in
03:31 29.3 °F 26.6 °F 29.3 in Calm   4.9 mph 95% 0 in
03:36 29.1 °F 26.6 °F 29.3 in Calm   4.9 mph 95% 0 in
03:41 29.1 °F 26.6 °F 29.3 in Calm   3.4 mph 95% 0 in
03:46 29.1 °F 26.6 °F 29.3 in Calm   1.3 mph 95% 0 in
03:51 28.9 °F 26.6 °F 29.3 in Calm     95% 0 in
03:56 29.1 °F 26.6 °F 29.3 in Calm     95% 0 in
04:01 29.1 °F 26.6 °F 29.3 in Calm   3.1 mph 95% 0 in
04:06 29.1 °F 26.6 °F 29.3 in Calm   3.1 mph 95% 0 in
04:11 28.9 °F 26.6 °F 29.3 in Calm     94% 0 in
04:16 28.9 °F 26.6 °F 29.3 in Calm     94% 0 in
04:21 28.9 °F 26.6 °F 29.3 in Calm   3.4 mph 94% 0 in
04:26 28.8 °F 26.6 °F 29.3 in Calm   3.8 mph 94% 0 in
04:31 28.8 °F 26.6 °F 29.3 in Calm   5.4 mph 94% 0 in
04:36 28.8 °F 26.6 °F 29.3 in NE 5.4 mph 5.6 mph 95% 0 in
04:41 28.8 °F 26.6 °F 29.3 in NNE 3.1 mph 5.6 mph 95% 0 in
04:46 28.6 °F 26.6 °F 29.3 in NE 3.4 mph 5.4 mph 95% 0 in
04:51 28.4 °F 26.6 °F 29.3 in NE 3.1 mph 4.5 mph 95% 0 in
04:57 28.2 °F 26.6 °F 29.3 in Calm   3.8 mph 95% 0 in
05:02 27.9 °F 24.8 °F 29.3 in NNE 3.6 mph 3.6 mph 95% 0 in
05:07 27.3 °F 24.8 °F 29.3 in Calm   3.8 mph 94% 0 in
05:12 27 °F 23 °F 29.3 in Calm   3.8 mph 93% 0 in
05:17 26.8 °F 23 °F 29.3 in NNE 3.8 mph 4 mph 93% 0 in
05:22 26.6 °F 23 °F 29.3 in North 2.7 mph 4 mph 94% 0 in
05:27 26.2 °F 23 °F 29.3 in NNE 2.5 mph 4 mph 94% 0 in
05:32 25.9 °F 23 °F 29.3 in Calm   4.3 mph 93% 0 in
05:37 25.7 °F 23 °F 29.3 in Calm   4.3 mph 93% 0 in
05:42 25.5 °F 23 °F 29.3 in NE 4.3 mph 4.5 mph 93% 0 in
05:47 25.5 °F 23 °F 29.2 in NNE 3.6 mph 4.7 mph 94% 0 in
05:52 25.5 °F 23 °F 29.2 in Calm   4.9 mph 94% 0 in
05:57 25.3 °F 23 °F 29.2 in NNE 3.8 mph 4.9 mph 94% 0 in
06:02 25.3 °F 23 °F 29.3 in NE 3.4 mph 4.9 mph 94% 0 in
06:07 25.3 °F 23 °F 29.3 in NE 3.8 mph 4.7 mph 94% 0 in
06:08 25.3 °F 23 °F 29.3 in NNE 2.5 mph 4.7 mph 94% 0 in
06:13 25.3 °F 23 °F 29.3 in NE 3.8 mph 4.7 mph 94% 0 in
06:18 25.3 °F 23 °F 29.3 in NE 3.8 mph 4 mph 94% 0 in
06:23 25.3 °F 23 °F 29.3 in Calm   4.7 mph 95% 0 in
06:28 25.3 °F 23 °F 29.3 in Calm   4.7 mph 95% 0 in
06:33 25.3 °F 23 °F 29.3 in NE 2.5 mph 4.5 mph 95% 0 in
06:38 25 °F 23 °F 29.3 in North 2.2 mph 4.7 mph 94% 0 in
06:43 25 °F 23 °F 29.3 in NNE 3.1 mph 4.7 mph 94% 0 in
06:48 24.8 °F 23 °F 29.3 in Calm   4 mph 95% 0 in
06:53 24.8 °F 23 °F 29.3 in Calm   4 mph 95% 0 in
06:58 24.8 °F 23 °F 29.3 in NNE 2.7 mph 3.4 mph 95% 0 in
07:03 24.8 °F 23 °F 29.3 in North 2.5 mph 3.8 mph 95% 0 in
07:09 24.8 °F 23 °F 29.3 in NNE 2.7 mph 3.8 mph 95% 0 in
07:14 25 °F 23 °F 29.3 in North 2.5 mph 4 mph 95% 0 in
07:19 25 °F 23 °F 29.3 in NNE 3.8 mph 4.3 mph 95% 0 in
07:24 25 °F 23 °F 29.3 in NE 2.7 mph 4.7 mph 95% 0 in
07:29 25 °F 23 °F 29.3 in North 4 mph 4.9 mph 95% 0 in
07:34 25 °F 23 °F 29.3 in NNE 2.9 mph 4.9 mph 95% 0 in
07:39 25 °F 23 °F 29.3 in North 1.6 mph 4.3 mph 95% 0 in
07:44 24.8 °F 23 °F 29.3 in NNE 2.2 mph 4 mph 96% 0 in
07:49 24.8 °F 23 °F 29.3 in Calm   4 mph 95% 0 in
07:54 24.8 °F 23 °F 29.3 in North 3.4 mph 3.8 mph 95% 0 in
07:59 24.8 °F 23 °F 29.3 in NNE 2.7 mph 4.3 mph 96% 0 in
08:04 24.8 °F 23 °F 29.3 in Calm   4.3 mph 96% 0 in
08:09 24.8 °F 23 °F 29.3 in NE 2.7 mph 3.6 mph 96% 0 in
08:14 25 °F 23 °F 29.3 in NNE 0.9 mph 3.8 mph 96% 0 in
08:19 25.2 °F 23 °F 29.3 in NE 0.9 mph 3.8 mph 96% 0 in
08:24 25.5 °F 23 °F 29.3 in North 0.9 mph 4 mph 96% 0 in
08:29 25.9 °F 24.8 °F 29.3 in NNE 2.2 mph 4.3 mph 97% 0 in
08:34 26.4 °F 24.8 °F 29.3 in Calm   4.3 mph 97% 0 in
08:39 26.8 °F 24.8 °F 29.3 in North 3.6 mph 4.3 mph 97% 0 in
08:44 27 °F 24.8 °F 29.3 in North 3.4 mph 5.4 mph 97% 0 in
08:49 27.3 °F 24.8 °F 29.3 in NE 3.1 mph 5.4 mph 97% 0 in
08:54 27.9 °F 26.6 °F 29.3 in NE 4.3 mph 4.3 mph 97% 0 in
08:59 28 °F 26.6 °F 29.4 in NE 2.9 mph 5.4 mph 98% 0 in
09:04 28.6 °F 26.6 °F 29.4 in NE 2.9 mph 5.4 mph 97% 0 in
09:09 29.1 °F 28.4 °F 29.4 in North 3.8 mph 5.4 mph 98% 0 in
09:14 29.7 °F 28.4 °F 29.3 in North 3.8 mph 5.4 mph 98% 0 in
09:19 30 °F 28.4 °F 29.3 in NE 2.9 mph 5.4 mph 98% 0 in
09:24 30.7 °F 30.2 °F 29.3 in NNE 3.8 mph 5.4 mph 98% 0 in
09:29 31.3 °F 30.2 °F 29.3 in ENE 1.6 mph 5.4 mph 98% 0 in
09:34 31.8 °F 30.2 °F 29.3 in NE 3.1 mph 6.3 mph 98% 0 in
09:39 32.2 °F 32 °F 29.3 in NE 5.4 mph 6.3 mph 98% 0 in
09:44 32.7 °F 33.8 °F 29.3 in East 4 mph 5.8 mph 98% 0 in
09:49 33.1 °F 33.8 °F 29.3 in ENE 5.8 mph 6.5 mph 98% 0 in
09:54 33.4 °F 33.8 °F 29.3 in NE 4 mph 6.5 mph 98% 0 in
09:59 33.8 °F 33.8 °F 29.3 in NE 7.2 mph 7.2 mph 98% 0 in
10:04 34.2 °F 33.8 °F 29.3 in NE 6.3 mph 7.2 mph 98% 0 in
10:09 34.5 °F 33.8 °F 29.3 in ENE 5.8 mph 7.2 mph 98% 0 in
10:15 34.9 °F 33.8 °F 29.3 in NE 6.5 mph 7.2 mph 97% 0 in
10:20 35.2 °F 33.8 °F 29.3 in NE 5.6 mph 7.2 mph 96% 0 in
10:25 35.6 °F 35.6 °F 29.3 in ENE 4.7 mph 6.9 mph 95% 0 in
10:30 36.3 °F 35.6 °F 29.3 in ENE 4.7 mph 6.5 mph 95% 0 in
10:35 37 °F 35.6 °F 29.3 in East 3.4 mph 6 mph 94% 0 in
10:40 37.8 °F 37.4 °F 29.3 in ENE 4 mph 6.5 mph 93% 0 in
10:45 38.1 °F 35.6 °F 29.3 in East 4.3 mph 7.2 mph 91% 0 in
10:50 38.7 °F 35.6 °F 29.3 in ENE 4.3 mph 7.2 mph 89% 0 in
10:55 39 °F 35.6 °F 29.3 in NE 6.3 mph 6.3 mph 88% 0 in
11:01 39.4 °F 35.6 °F 29.3 in East 5.8 mph 6.3 mph 86% 0 in
11:06 39.9 °F 35.6 °F 29.3 in ENE 6.3 mph 7.2 mph 84% 0 in
11:11 40.5 °F 35.6 °F 29.3 in East 4.9 mph 7.2 mph 83% 0 in
11:16 40.6 °F 35.6 °F 29.3 in ENE 7.4 mph 7.6 mph 81% 0 in
11:21 41 °F 35.6 °F 29.3 in East 3.4 mph 8.1 mph 79% 0 in
11:26 41.4 °F 35.6 °F 29.3 in NE 6.3 mph 8.1 mph 78% 0 in
11:34 32 °F 35.6 °F 29.3 in Calm     0% 0 in
11:39 42.4 °F 37.4 °F 29.3 in East 2.2 mph 6 mph 78% 0 in
11:44 43 °F 35.6 °F 29.3 in Calm   6.3 mph 76% 0 in
11:50 43.3 °F 37.4 °F 29.3 in ESE 1.1 mph 6.3 mph 76% 0 in
11:55 43.7 °F 37.4 °F 29.3 in East 4 mph 6.3 mph 75% 0 in
12:00 43.9 °F 37.4 °F 29.3 in NE 5.4 mph 6.3 mph 74% 0 in
12:05 44.1 °F 35.6 °F 29.3 in ENE 7.2 mph 7.2 mph 73% 0 in
12:10 44.1 °F 35.6 °F 29.3 in NE 6 mph 8.1 mph 72% 0 in
12:15 44.2 °F 35.6 °F 29.3 in ENE 4.9 mph 8.1 mph 73% 0 in
12:20 44.8 °F 37.4 °F 29.3 in Calm   6.5 mph 73% 0 in
12:25 45.3 °F 37.4 °F 29.3 in ENE 3.1 mph 6.5 mph 72% 0 in
12:30 45.9 °F 37.4 °F 29.3 in East 4.9 mph 6.5 mph 71% 0 in
12:36 46.2 °F 37.4 °F 29.3 in ENE 5.6 mph 7.4 mph 70% 0 in
12:41 46.6 °F 37.4 °F 29.3 in ESE 6.3 mph 8.1 mph 69% 0 in
12:46 47.1 °F 37.4 °F 29.3 in East 7.4 mph 8.1 mph 67% 0 in
12:51 47.3 °F 37.4 °F 29.3 in East 4.3 mph 7.6 mph 66% 0 in
12:56 47.7 °F 37.4 °F 29.3 in ESE 1.1 mph 7.6 mph 64% 0 in
13:01 47.8 °F 37.4 °F 29.3 in East 7.6 mph 7.8 mph 63% 0 in
13:06 47.8 °F 37.4 °F 29.3 in ENE 6.3 mph 7.8 mph 63% 0 in
13:11 48.2 °F 35.6 °F 29.3 in East 4.3 mph 7.8 mph 62% 0 in
13:16 48.6 °F 37.4 °F 29.3 in SSE 3.8 mph 6.7 mph 62% 0 in
13:21 48.7 °F 35.6 °F 29.3 in East 4.9 mph 6.5 mph 61% 0 in
13:26 48.9 °F 35.6 °F 29.3 in ENE 3.4 mph 7.8 mph 60% 0 in
13:31 49.1 °F 37.4 °F 29.3 in ESE 8.1 mph 8.1 mph 60% 0 in
13:36 49.1 °F 35.6 °F 29.3 in East 5.8 mph 8.5 mph 58% 0 in
13:41 48.4 °F 33.8 °F 29.3 in East 3.6 mph 8.5 mph 57% 0 in
13:46 48 °F 33.8 °F 29.3 in ENE 6.7 mph 7.8 mph 58% 0 in
13:51 48.2 °F 35.6 °F 29.3 in East 4.9 mph 8.5 mph 59% 0 in
13:56 48.6 °F 35.6 °F 29.3 in Calm   8.5 mph 59% 0 in
14:01 48.7 °F 35.6 °F 29.3 in East 5.4 mph 7.6 mph 59% 0 in
14:07 48.7 °F 35.6 °F 29.3 in East 6.5 mph 7.8 mph 59% 0 in
14:11 48.4 °F 35.6 °F 29.3 in East 2 mph 8.1 mph 59% 0 in
14:16 48 °F 35.6 °F 29.3 in East 6.3 mph 8.1 mph 59% 0 in
14:21 47.8 °F 35.6 °F 29.3 in ENE 5.6 mph 7.4 mph 60% 0 in
14:27 47.8 °F 35.6 °F 29.3 in ENE 4 mph 7.2 mph 60% 0 in
14:32 47.7 °F 35.6 °F 29.3 in Calm   6.9 mph 61% 0 in
14:36 47.3 °F 35.6 °F 29.3 in East 3.8 mph 6.5 mph 61% 0 in
14:42 47.1 °F 35.6 °F 29.3 in East 4.9 mph 6.5 mph 62% 0 in
14:47 47.1 °F 35.6 °F 29.3 in NE 3.4 mph 6.5 mph 63% 0 in
14:52 47.1 °F 35.6 °F 29.3 in East 5.6 mph 6 mph 63% 0 in
14:57 46.9 °F 35.6 °F 29.3 in Calm   5.6 mph 64% 0 in
15:02 46.8 °F 35.6 °F 29.3 in East 4 mph 5.6 mph 64% 0 in
15:07 46.8 °F 35.6 °F 29.3 in East 2.7 mph 5.8 mph 64% 0 in
15:12 46.6 °F 35.6 °F 29.3 in East 3.4 mph 5.8 mph 65% 0 in
15:17 46.4 °F 35.6 °F 29.3 in East 3.4 mph 4.9 mph 65% 0 in
15:22 46.2 °F 35.6 °F 29.3 in Calm   4.3 mph 66% 0 in
15:27 46.2 °F 35.6 °F 29.3 in ENE 3.4 mph 4.3 mph 66% 0 in
15:32 46 °F 35.6 °F 29.3 in ENE 2.5 mph 4.7 mph 66% 0 in
15:37 46 °F 35.6 °F 29.3 in ENE 3.6 mph 5.8 mph 67% 0 in
15:42 45.9 °F 35.6 °F 29.3 in NE 3.6 mph 5.8 mph 67% 0 in
15:47 45.7 °F 35.6 °F 29.3 in NE 2.9 mph 5.4 mph 67% 0 in
15:52 45.5 °F 35.6 °F 29.3 in NE 3.4 mph 5.4 mph 68% 0 in
15:57 45.5 °F 35.6 °F 29.3 in NE 5.6 mph 7.4 mph 68% 0 in
16:02 45.3 °F 35.6 °F 29.3 in NNE 3.6 mph 7.4 mph 68% 0 in
16:07 45.3 °F 35.6 °F 29.3 in Calm   6.3 mph 68% 0 in
16:12 45.3 °F 35.6 °F 29.3 in ENE 3.6 mph 6.3 mph 68% 0 in
16:18 45.3 °F 35.6 °F 29.3 in East 5.4 mph 6 mph 68% 0 in
16:23 45.1 °F 35.6 °F 29.3 in East 4.3 mph 7.2 mph 68% 0 in
16:28 44.8 °F 35.6 °F 29.3 in ENE 6.3 mph 7.2 mph 68% 0 in
16:33 44.6 °F 35.6 °F 29.3 in East 2.9 mph 6.3 mph 68% 0 in
16:38 44.4 °F 35.6 °F 29.3 in East 3.6 mph 6.3 mph 69% 0 in
16:43 44.2 °F 33.8 °F 29.3 in ENE 3.8 mph 5.8 mph 69% 0 in
16:48 44.1 °F 35.6 °F 29.3 in East 1.6 mph 5.8 mph 70% 0 in
16:53 43.9 °F 35.6 °F 29.3 in East 3.4 mph 4.9 mph 70% 0 in
16:58 43.9 °F 35.6 °F 29.3 in East 5.4 mph 5.4 mph 71% 0 in
17:03 43.5 °F 35.6 °F 29.3 in NE 2 mph 5.6 mph 71% 0 in
17:08 43.3 °F 35.6 °F 29.3 in Calm   5.6 mph 72% 0 in
17:13 43.2 °F 35.6 °F 29.3 in East 2.7 mph 5.6 mph 73% 0 in
18:19 32 °F 35.6 °F 0 in Calm     0% 0 in
18:24 41.7 °F 35.6 °F 29.3 in Calm   3.1 mph 78% 0 in
18:29 41.5 °F 35.6 °F 29.3 in Calm   3.1 mph 79% 0 in
18:34 41.5 °F 35.6 °F 29.3 in Calm   4.3 mph 79% 0 in
18:39 41.7 °F 35.6 °F 29.3 in SSE 3.1 mph 4.3 mph 79% 0 in
18:44 41.5 °F 35.6 °F 29.3 in SSE 4.7 mph 6.7 mph 79% 0 in
18:49 41.4 °F 35.6 °F 29.3 in SSE 7.2 mph 7.2 mph 78% 0 in
18:54 41.2 °F 35.6 °F 29.3 in Calm   8.7 mph 78% 0 in
18:59 41 °F 35.6 °F 29.3 in Calm   8.7 mph 78% 0 in
19:04 40.6 °F 33.8 °F 29.3 in Calm   4.9 mph 78% 0 in
19:09 40.6 °F 33.8 °F 29.3 in Calm   5.8 mph 78% 0 in
19:14 40.3 °F 33.8 °F 29.3 in Calm   5.8 mph 78% 0 in
19:19 40.1 °F 33.8 °F 29.3 in SE 2.5 mph 2.5 mph 78% 0 in
19:24 39.9 °F 33.8 °F 29.3 in SE 0.9 mph 2.7 mph 78% 0 in
19:29 39.7 °F 33.8 °F 29.3 in SSE 5.8 mph 5.8 mph 78% 0 in
19:34 39.7 °F 33.8 °F 29.3 in SE 2.7 mph 5.8 mph 79% 0 in
19:39 39.6 °F 33.8 °F 29.3 in Calm   5.8 mph 79% 0 in
19:44 39.4 °F 33.8 °F 29.3 in SSE 2.5 mph 5.8 mph 79% 0 in
19:50 39.2 °F 33.8 °F 29.3 in ESE 3.8 mph 4.3 mph 79% 0 in
19:55 39 °F 33.8 °F 29.3 in East 2.5 mph 4.3 mph 79% 0 in
20:00 38.7 °F 33.8 °F 29.3 in ESE 2.5 mph 6.3 mph 79% 0 in
20:05 38.3 °F 33.8 °F 29.3 in Calm   6.3 mph 80% 0 in
20:10 37.9 °F 33.8 °F 29.3 in Calm   5.4 mph 80% 0 in
20:15 37.6 °F 32 °F 29.3 in Calm   3.1 mph 80% 0 in
20:20 37.4 °F 32 °F 29.3 in ESE 1.1 mph 4 mph 80% 0 in
20:25 37.4 °F 33.8 °F 29.3 in SE 3.8 mph 6.3 mph 83% 0 in
20:30 37.6 °F 33.8 °F 29.3 in SSE 6 mph 6.7 mph 85% 0 in
20:35 37.9 °F 33.8 °F 29.3 in South 5.8 mph 7.8 mph 86% 0 in
20:40 37.9 °F 33.8 °F 29.3 in SE 4.9 mph 7.8 mph 86% 0 in
20:45 38.1 °F 33.8 °F 29.3 in Calm   6.5 mph 86% 0 in
20:50 38.5 °F 35.6 °F 29.3 in ESE 4 mph 7.2 mph 86% 0 in
20:55 38.5 °F 35.6 °F 29.3 in SE 5.6 mph 7.2 mph 86% 0 in
21:00 38.7 °F 35.6 °F 29.3 in Calm   7.6 mph 86% 0 in
21:05 38.7 °F 35.6 °F 29.3 in South 5.8 mph 7.6 mph 86% 0 in
21:10 38.8 °F 35.6 °F 29.3 in SE 3.1 mph 6.3 mph 86% 0 in
21:15 38.8 °F 35.6 °F 29.3 in SE 8.7 mph 8.7 mph 86% 0 in
21:20 38.8 °F 35.6 °F 29.3 in SE 5.4 mph 8.7 mph 86% 0 in
21:26 38.8 °F 35.6 °F 29.3 in SSE 4 mph 8.1 mph 86% 0 in
21:31 38.8 °F 35.6 °F 29.3 in SSE 3.8 mph 8.7 mph 86% 0 in
21:36 38.8 °F 35.6 °F 29.3 in SSE 5.6 mph 8.7 mph 85% 0 in
21:41 38.7 °F 35.6 °F 29.3 in SE 6.5 mph 8.7 mph 85% 0 in
21:46 38.7 °F 35.6 °F 29.3 in Calm   7.4 mph 85% 0 in
21:51 38.7 °F 35.6 °F 29.3 in Calm   7.4 mph 85% 0 in
21:56 38.7 °F 35.6 °F 29.3 in SSE 2.7 mph 5.8 mph 85% 0 in
22:01 38.7 °F 35.6 °F 29.3 in Calm   5.8 mph 85% 0 in
22:06 38.5 °F 35.6 °F 29.3 in SE 6.3 mph 6.5 mph 85% 0 in
22:11 38.5 °F 35.6 °F 29.3 in SE 4 mph 6.5 mph 85% 0 in
22:16 38.5 °F 35.6 °F 29.3 in Calm   6.5 mph 85% 0 in
22:21 38.5 °F 35.6 °F 29.3 in Calm   7.2 mph 85% 0 in
22:26 38.3 °F 35.6 °F 29.3 in SE 3.1 mph 7.2 mph 85% 0 in
22:31 38.1 °F 33.8 °F 29.3 in SE 4 mph 5.4 mph 85% 0 in
22:36 38.1 °F 33.8 °F 29.3 in SE 2.9 mph 5.8 mph 85% 0 in
22:42 38.1 °F 33.8 °F 29.3 in Calm   5.8 mph 85% 0 in
22:47 37.9 °F 33.8 °F 29.3 in SE 5.4 mph 6 mph 85% 0 in
22:52 37.9 °F 33.8 °F 29.3 in Calm   6 mph 85% 0 in
22:57 37.8 °F 33.8 °F 29.3 in ESE 6.3 mph 6.3 mph 85% 0 in
23:02 37.6 °F 33.8 °F 29.3 in SE 1.3 mph 6.3 mph 85% 0 in
23:19 32 °F 33.8 °F 0 in SE 4.7 mph 4.7 mph 0% 0 in
23:24 36.7 °F 33.8 °F 29.4 in SE 2 mph 5.4 mph 86% 0 in
23:29 36.7 °F 33.8 °F 29.4 in ESE 5.4 mph 7.2 mph 86% 0 in
23:34 36.7 °F 33.8 °F 29.4 in SSE 2.7 mph 7.2 mph 87% 0 in
23:39 36.7 °F 33.8 °F 29.4 in Calm   6.3 mph 88% 0 in
23:44 36.5 °F 33.8 °F 29.4 in SE 2.7 mph 6.5 mph 88% 0 in
23:49 36.7 °F 33.8 °F 29.4 in SSE 4.9 mph 6.5 mph 89% 0 in
23:54 36.7 °F 33.8 °F 29.4 in Calm   6 mph 89% 0 in
23:59 36.7 °F 33.8 °F 29.4 in Calm   6.3 mph 89% 0 in
Données Historique de Météo Turbie

Mise a jour : 18/06/2018 07:51:12
Généré par Cumulus 1.9.4 (1099)